Location: Karwodrza
(49.9217°N, 21.0454°E)
Time: 07:47:53
(UTC+02:00)

ISS - Pass Details

Date: 29 January 2019
Orbit: 411 x 421 km, 51.6° (Epoch: 23 October)

Event Time Altitude Azimuth Distance (km) Brightness Sun altitude
Rises 18:18:23 0° 271° (W) 2,417 1.8 -18.3°
Reaches altitude 10° 18:20:31 10° 274° (W) 1,551 0.3 -18.6°
Maximum altitude 18:23:59 64° 356° (N) 492 -3.5 -19.2°
Enters shadow 18:24:20 59° 32° (NNE) 513 -3.6 -19.2°
